When you browse on this site, cookies collect data to enhance your experience and personalize the content and advertising you see.
Visit our Privacy Policy to learn more. By continuing to use the site, you agree to this use of cookies and data.
  • In Austria
  • List of Countries
  • For 7 days
  • Water Temperature
  • Weather Map
  • News
  • Weather Widgets
  • user-avatar
    Login

    Hourly Weather Corozal

    Today, 20 February, Thursday

    Time Temperature Precipitation Wind Pressure Humidity
    00:00 +26°C° 0 mm 3 mps 762 mmHg 92%
    01:00 +26°C° 0 mm 2 mps 761 mmHg 93%
    02:00 +25°C° 0 mm 2 mps 761 mmHg 93%
    03:00 +25°C° 0 mm 2 mps 760 mmHg 94%
    04:00 +25°C° 0.1 mm 2 mps 760 mmHg 95%
    05:00 +25°C° 0.1 mm 2 mps 761 mmHg 95%
    06:00 +25°C° 0.1 mm 2 mps 761 mmHg 96%
    07:00 +26°C° 0.1 mm 2 mps 761 mmHg 89%
    08:00 +28°C° 0.1 mm 2 mps 762 mmHg 83%
    09:00 +29°C° 0.1 mm 3 mps 762 mmHg 76%
    10:00 +31°C° 0 mm 3 mps 762 mmHg 68%
    11:00 +33°C° 0 mm 3 mps 762 mmHg 61%
    12:00 +34°C° 0 mm 3 mps 762 mmHg 53%
    13:00 +34°C° 0 mm 3 mps 761 mmHg 53%
    14:00 +34°C° 0 mm 3 mps 760 mmHg 52%
    15:00 +34°C° 0 mm 3 mps 760 mmHg 52%
    16:00 +31°C° 0 mm 3 mps 760 mmHg 59%
    17:00 +30°C° 0 mm 3 mps 760 mmHg 65%
    18:00 +28°C° 0 mm 3 mps 761 mmHg 72%
    19:00 +27°C° 0 mm 2 mps 761 mmHg 78%
    20:00 +26°C° 0 mm 2 mps 762 mmHg 84%
    21:00 +25°C° 0 mm 2 mps 762 mmHg 89%
    22:00 +25°C° 0 mm 2 mps 762 mmHg 91%
    23:00 +24°C° 0 mm 1 mps 763 mmHg 93%

    Tomorrow, 21 February, Friday

    Time Temperature Precipitation Wind Pressure Humidity
    00:00 +24°C° 0 mm 1 mps 763 mmHg 95%
    07:00 +25°C° 0.1 mm 2 mps 763 mmHg 91%
    08:00 +26°C° 0.1 mm 3 mps 764 mmHg 83%
    09:00 +28°C° 0.1 mm 3 mps 764 mmHg 75%
    10:00 +29°C° 0 mm 3 mps 764 mmHg 64%
    11:00 +31°C° 0 mm 3 mps 764 mmHg 52%
    12:00 +34°C° 0 mm 2 mps 763 mmHg 41%
    13:00 +35°C° 0 mm 2 mps 763 mmHg 39%
    14:00 +35°C° 0 mm 2 mps 762 mmHg 38%
    15:00 +35°C° 0 mm 2 mps 761 mmHg 37%
    16:00 +32°C° 0 mm 2 mps 761 mmHg 46%
    17:00 +30°C° 0 mm 2 mps 761 mmHg 56%
    18:00 +28°C° 0 mm 3 mps 762 mmHg 66%
    19:00 +27°C° 0.1 mm 3 mps 762 mmHg 72%
    20:00 +26°C° 0.1 mm 3 mps 763 mmHg 78%
    21:00 +26°C° 0.1 mm 3 mps 764 mmHg 84%
    22:00 +25°C° 0.2 mm 3 mps 764 mmHg 86%
    23:00 +25°C° 0.2 mm 3 mps 764 mmHg 89%

    Day after tomorrow, 22 February, Saturday

    Time Temperature Precipitation Wind Pressure Humidity
    00:00 +23°C° 0.2 mm 4 mps 764 mmHg 92%
    01:00 +23°C° 0 mm 4 mps 764 mmHg 91%
    02:00 +22°C° 0 mm 4 mps 764 mmHg 91%
    03:00 +22°C° 0 mm 4 mps 763 mmHg 91%
    04:00 +21°C° 0 mm 3 mps 764 mmHg 90%
    05:00 +21°C° 0 mm 3 mps 764 mmHg 90%
    06:00 +21°C° 0 mm 3 mps 764 mmHg 90%
    07:00 +22°C° 0 mm 3 mps 765 mmHg 84%
    08:00 +24°C° 0 mm 3 mps 765 mmHg 77%
    09:00 +25°C° 0 mm 4 mps 766 mmHg 71%
    10:00 +27°C° 0 mm 3 mps 765 mmHg 64%
    11:00 +28°C° 0 mm 3 mps 765 mmHg 57%
    12:00 +30°C° 0 mm 3 mps 764 mmHg 49%
    13:00 +31°C° 0 mm 2 mps 763 mmHg 47%
    14:00 +31°C° 0 mm 2 mps 763 mmHg 45%
    15:00 +32°C° 0 mm 2 mps 762 mmHg 42%
    16:00 +30°C° 0 mm 3 mps 762 mmHg 50%
    17:00 +28°C° 0 mm 3 mps 762 mmHg 58%
    18:00 +26°C° 0 mm 3 mps 763 mmHg 65%
    19:00 +26°C° 0 mm 3 mps 763 mmHg 69%
    20:00 +25°C° 0 mm 3 mps 764 mmHg 72%
    21:00 +24°C° 0 mm 3 mps 764 mmHg 75%
    22:00 +22°C° 0 mm 3 mps 764 mmHg 74%
    23:00 +21°C° 0 mm 3 mps 764 mmHg 74%

    23 February, Sunday

    Time Temperature Precipitation Wind Pressure Humidity
    00:00 +21°C° 0 mm 3 mps 764 mmHg 73%
    01:00 +20°C° 0 mm 3 mps 764 mmHg 75%
    02:00 +19°C° 0 mm 2 mps 763 mmHg 78%
    03:00 +18°C° 0 mm 2 mps 763 mmHg 80%
    04:00 +17°C° 0 mm 2 mps 763 mmHg 82%
    05:00 +17°C° 0 mm 2 mps 763 mmHg 84%
    06:00 +16°C° 0 mm 2 mps 764 mmHg 87%
    07:00 +18°C° 0 mm 2 mps 764 mmHg 78%
    08:00 +20°C° 0 mm 2 mps 764 mmHg 70%
    09:00 +23°C° 0 mm 2 mps 765 mmHg 62%
    10:00 +26°C° 0 mm 2 mps 764 mmHg 55%
    11:00 +28°C° 0 mm 1 mps 763 mmHg 48%
    12:00 +30°C° 0 mm 1 mps 762 mmHg 40%
    13:00 +30°C° 0 mm 1 mps 762 mmHg 38%
    14:00 +31°C° 0 mm 1 mps 761 mmHg 36%
    15:00 +31°C° 0 mm 1 mps 760 mmHg 34%
    16:00 +29°C° 0 mm 2 mps 760 mmHg 43%
    17:00 +27°C° 0 mm 2 mps 760 mmHg 52%
    18:00 +24°C° 0 mm 3 mps 760 mmHg 60%
    19:00 +22°C° 0 mm 3 mps 761 mmHg 66%
    20:00 +23°C° 0 mm 2 mps 761 mmHg 72%
    21:00 +21°C° 0 mm 2 mps 761 mmHg 79%
    22:00 +20°C° 0 mm 2 mps 761 mmHg 81%
    23:00 +21°C° 0 mm 1 mps 761 mmHg 83%

    24 February, Monday

    Time Temperature Precipitation Wind Pressure Humidity
    00:00 +20°C° 0 mm 1 mps 760 mmHg 85%
    01:00 +20°C° 0 mm 1 mps 760 mmHg 86%
    02:00 +20°C° 0 mm 1 mps 760 mmHg 88%
    03:00 +20°C° 0 mm 1 mps 759 mmHg 90%
    04:00 +20°C° 0 mm 1 mps 759 mmHg 91%
    05:00 +19°C° 0 mm 1 mps 759 mmHg 92%
    06:00 +19°C° 0 mm 1 mps 760 mmHg 93%
    07:00 +21°C° 0 mm 1 mps 760 mmHg 86%
    08:00 +23°C° 0 mm 1 mps 760 mmHg 78%
    09:00 +25°C° 0 mm 1 mps 761 mmHg 71%
    10:00 +27°C° 0 mm 1 mps 760 mmHg 66%
    11:00 +29°C° 0 mm 1 mps 760 mmHg 61%
    12:00 +31°C° 0 mm 1 mps 759 mmHg 56%
    13:00 +31°C° 0 mm 2 mps 758 mmHg 55%
    14:00 +31°C° 0 mm 3 mps 757 mmHg 55%
    15:00 +33°C° 0 mm 3 mps 757 mmHg 54%
    16:00 +30°C° 0 mm 3 mps 757 mmHg 61%
    17:00 +28°C° 0 mm 3 mps 757 mmHg 67%
    18:00 +26°C° 0 mm 3 mps 757 mmHg 74%
    19:00 +25°C° 0 mm 2 mps 757 mmHg 79%
    20:00 +24°C° 0 mm 2 mps 758 mmHg 85%
    21:00 +23°C° 0 mm 2 mps 758 mmHg 90%
    22:00 +23°C° 0 mm 2 mps 758 mmHg 91%
    23:00 +23°C° 0 mm 2 mps 758 mmHg 92%

    25 February, Tuesday

    Time Temperature Precipitation Wind Pressure Humidity
    00:00 +23°C° 0 mm 2 mps 758 mmHg 94%
    01:00 +23°C° 0 mm 2 mps 758 mmHg 93%
    02:00 +23°C° 0 mm 2 mps 757 mmHg 92%
    03:00 +24°C° 0 mm 2 mps 757 mmHg 91%
    04:00 +24°C° 0 mm 2 mps 757 mmHg 92%
    05:00 +24°C° 0 mm 2 mps 757 mmHg 92%
    06:00 +24°C° 0 mm 2 mps 757 mmHg 93%
    07:00 +26°C° 0 mm 2 mps 758 mmHg 84%
    08:00 +28°C° 0 mm 3 mps 758 mmHg 75%
    09:00 +30°C° 0 mm 3 mps 759 mmHg 66%
    10:00 +31°C° 0 mm 3 mps 759 mmHg 62%
    11:00 +33°C° 0 mm 3 mps 758 mmHg 58%
    12:00 +34°C° 0 mm 3 mps 758 mmHg 54%
    13:00 +34°C° 0 mm 3 mps 757 mmHg 54%
    14:00 +34°C° 0 mm 3 mps 757 mmHg 54%
    15:00 +33°C° 0 mm 3 mps 756 mmHg 55%
    16:00 +31°C° 0 mm 3 mps 756 mmHg 61%
    17:00 +29°C° 0 mm 2 mps 756 mmHg 68%
    18:00 +27°C° 0 mm 2 mps 756 mmHg 74%
    19:00 +27°C° 0 mm 3 mps 757 mmHg 79%
    20:00 +26°C° 0 mm 3 mps 758 mmHg 83%
    21:00 +25°C° 0 mm 3 mps 758 mmHg 87%
    22:00 +25°C° 0 mm 2 mps 758 mmHg 90%
    23:00 +24°C° 0 mm 2 mps 759 mmHg 93%
    Show more